Wind_Speed
16 16 16 17 17 17 17 17 17 18 19 19 19 19 20 21 21 21 21 21 21 21 21 21 20 20 20 20 20 20 21 21 21 21 22 23 23 22
16 17 17 18 18 19 19 19 19 19 20 21 21 22 23 23 23 23 23 22 22 22 22 22 21 21 21 21 20 20 21 22 22 22 23 23 24 24
18 18 18 18 19 20 21 21 21 21 22 23 24 24 25 25 25 24 23 23 23 23 23 23 22 23 23 22 21 21 22 22 22 23 23 24 24 24
21 20 20 20 21 21 22 23 24 24 25 26 26 26 25 26 25 25 25 24 24 24 24 24 24 24 23 23 23 23 22 23 23 23 23 23 24 24
22 22 23 23 23 23 24 24 25 27 27 28 27 27 27 27 26 26 26 26 26 26 25 25 25 24 24 24 25 24 24 24 24 24 24 23 23 24
24 24 25 25 25 25 26 27 27 28 28 28 29 29 28 27 27 26 27 27 27 27 27 27 26 26 26 25 26 26 25 24 24 24 24 24 24 24
26 26 27 27 27 27 27 28 29 29 29 29 29 29 29 28 27 27 28 28 27 28 28 28 28 27 27 27 27 27 27 26 25 25 25 25 24 24
28 28 28 27 27 27 28 28 29 29 29 29 29 29 28 28 28 28 29 28 28 28 28 28 28 28 28 28 29 28 28 28 26 25 25 25 25 26
28 29 28 28 28 28 28 28 29 30 29 28 28 29 28 29 29 29 29 29 29 29 29 29 29 30 30 30 29 29 28 28 27 27 26 27 27 27
29 28 28 27 28 28 28 28 29 29 30 29 28 29 30 30 30 31 31 30 30 30 30 30 30 30 31 31 30 30 29 28 27 27 28 28 27 27
29 29 29 29 29 28 28 28 28 28 28 27 28 29 29 30 30 31 31 31 31 30 31 31 31 31 31 31 31 31 30 29 28 28 28 28 27 27
31 30 30 30 29 29 28 28 29 28 28 28 28 28 28 29 29 30 31 30 30 31 31 31 31 31 31 31 31 31 30 30 29 29 28 28 28 27
31 31 30 30 29 29 29 30 30 30 29 29 28 28 28 29 29 30 30 30 29 29 30 31 30 30 30 30 31 31 31 30 29 29 29 28 28 28
31 31 31 31 30 30 30 31 31 31 30 30 30 30 29 29 30 30 30 29 29 29 28 28 28 28 28 29 29 30 30 30 29 29 29 29 28 28
31 31 32 32 32 31 31 31 31 31 31 30 30 30 30 30 29 29 28 28 29 28 27 26 26 26 27 27 27 28 28 28 28 28 28 27 27 27
31 31 32 31 32 32 31 31 31 30 30 30 29 29 30 30 29 29 29 28 27 26 26 26 26 26 26 26 26 26 27 27 26 26 26 26 26 26
30 31 31 32 32 32 31 31 31 31 30 29 29 29 29 29 28 28 28 28 27 27 27 26 26 26 26 26 26 26 26 26 26 26 26 25 25 25
30 31 31 31 32 31 30 30 31 30 30 29 29 28 28 28 27 27 27 26 25 26 26 26 27 26 25 25 25 26 26 25 25 24 24 24 23 23
31 31 32 31 31 31 31 31 30 29 29 29 28 28 27 26 26 26 25 25 25 25 25 25 25 26 25 25 25 25 24 23 22 22 22 22 22 22
30 31 31 31 31 31 31 31 30 28 27 27 27 26 26 25 25 25 25 25 24 24 24 24 25 25 25 24 24 23 23 23 22 21 21 22 22 22
30 30 30 30 30 30 30 30 29 28 27 27 26 25 26 26 25 24 24 24 24 24 24 23 23 24 24 23 23 23 23 23 22 22 21 21 22 22
29 29 29 29 29 30 31 30 29 28 27 27 27 27 27 27 26 25 25 25 24 24 23 23 23 22 21 21 21 22 23 23 22 22 21 21 21 21
27 28 28 28 29 29 28 28 28 28 27 26 26 26 26 26 25 25 25 24 23 22 22 23 22 21 21 21 22 22 21 21 20 20 21 21 21 21
Wind_Direction
283 281 280 280 279 280 281 282 282 284 285 284 284 283 282 282 283 281 280 281 280 281 280 278 276 276 278 280 281 279 277 277 277 275 274 273 269 270
283 281 282 282 281 281 281 282 282 282 282 283 283 283 283 283 283 279 279 280 280 281 281 279 276 277 277 279 279 277 276 278 279 278 277 275 271 271
283 282 282 281 282 282 281 281 281 283 283 283 284 284 284 284 284 282 281 276 277 278 279 277 277 279 276 274 277 279 278 279 280 281 278 275 273 272
282 283 282 282 282 283 282 281 281 282 283 284 286 286 285 285 283 283 282 279 277 277 276 276 277 277 274 273 275 278 280 282 282 282 280 276 273 273
284 284 284 284 284 284 285 284 282 282 282 283 284 286 286 285 283 282 280 279 278 277 275 275 275 273 273 274 275 277 280 283 283 280 278 276 273 271
285 285 285 284 284 284 284 284 283 282 283 281 283 284 285 284 282 280 279 279 279 278 276 274 273 273 272 273 275 277 280 282 283 279 276 274 272 271
284 284 284 285 285 285 284 283 282 282 282 281 281 282 283 282 281 280 280 279 278 279 278 274 273 273 273 273 275 277 279 281 283 280 276 273 272 272
283 285 285 285 286 285 285 285 284 283 282 280 279 280 280 281 281 280 280 280 279 279 278 276 274 273 273 274 274 276 278 280 280 278 275 274 272 272
282 283 284 283 285 287 287 285 285 285 285 281 280 280 278 278 279 279 280 279 277 277 276 276 275 273 273 274 274 275 276 277 276 276 273 273 271 270
282 282 283 283 285 286 286 287 288 287 285 282 280 279 278 277 277 278 279 278 277 276 276 277 276 274 274 273 273 274 274 275 275 275 273 271 269 269
281 282 282 283 284 286 286 287 289 289 286 284 283 281 279 278 277 278 278 277 277 277 277 278 276 274 273 272 272 273 274 274 275 275 273 271 269 269
279 280 281 282 283 285 286 286 288 288 287 286 285 283 280 278 278 279 279 278 277 277 277 278 276 275 274 273 273 272 273 273 274 275 275 272 269 269
279 278 279 279 281 283 284 285 286 287 286 286 285 284 282 282 281 281 280 279 280 279 278 278 276 274 274 274 273 273 273 274 274 275 274 272 270 269
280 279 279 278 279 280 282 284 285 286 286 285 285 285 284 284 284 283 281 280 279 279 279 280 277 274 275 274 273 272 273 273 272 273 273 273 271 271
280 280 280 278 277 278 279 281 282 284 284 283 284 284 285 285 286 285 282 280 279 278 278 279 277 275 275 275 274 272 272 272 271 270 271 271 271 272
279 280 280 279 278 278 279 279 281 284 282 282 284 284 284 285 285 285 283 282 282 280 278 276 276 276 275 276 274 272 271 272 271 269 270 271 272 273
280 280 281 280 279 278 278 279 280 282 284 284 284 284 284 284 283 283 282 281 281 279 279 278 277 277 275 275 273 272 273 273 272 269 269 270 272 272
282 282 281 280 279 278 279 280 281 281 282 283 284 284 284 283 282 282 282 282 282 281 279 278 278 277 274 272 272 273 272 272 271 269 268 269 271 273
282 282 282 280 280 280 281 281 282 282 281 281 282 282 282 282 281 281 282 282 283 283 280 279 278 277 274 272 272 270 270 271 270 269 268 269 271 272
284 284 282 281 280 280 280 280 282 282 281 281 280 279 279 280 280 281 282 282 283 283 281 279 277 276 275 273 271 270 268 268 267 267 268 269 269 270
285 286 283 283 282 280 280 279 279 279 279 279 279 280 279 280 280 281 282 283 283 283 281 279 277 275 273 271 269 267 267 268 267 267 267 268 268 268
285 284 283 283 283 281 279 278 277 278 277 276 277 279 280 281 280 280 281 282 283 283 283 281 278 275 273 271 268 268 268 268 267 264 265 265 266 267
286 285 285 283 282 282 280 279 278 279 278 277 278 280 280 281 280 281 282 282 283 282 281 281 281 276 272 272 271 270 270 268 267 265 266 265 264 266
Height
5867 5865 5865 5864 5863 5862 5862 5861 5861 5859 5858 5857 5856 5855 5854 5853 5852 5851 5850 5849 5848 5847 5846 5845 5844 5844 5844 5843 5842 5842 5841 5840 5840 5839 5839 5838 5838 5837
5862 5861 5860 5859 5859 5858 5857 5856 5855 5854 5853 5852 5851 5850 5849 5847 5846 5845 5844 5843 5842 5841 5840 5839 5838 5838 5838 5837 5837 5836 5835 5834 5834 5833 5832 5832 5831 5831
5857 5856 5855 5854 5853 5852 5852 5850 5849 5848 5847 5846 5845 5843 5842 5841 5840 5838 5837 5836 5836 5835 5834 5833 5833 5832 5832 5831 5831 5830 5829 5828 5827 5826 5825 5825 5824 5824
5852 5851 5850 5849 5848 5847 5846 5844 5843 5842 5841 5840 5838 5837 5835 5834 5833 5832 5831 5830 5829 5828 5828 5827 5826 5826 5825 5825 5824 5823 5822 5821 5820 5819 5819 5818 5818 5817
5847 5845 5844 5843 5842 5840 5839 5838 5837 5835 5834 5833 5832 5830 5828 5827 5826 5825 5824 5823 5822 5821 5821 5820 5819 5819 5819 5818 5817 5817 5816 5815 5814 5813 5812 5811 5811 5810
5840 5839 5837 5836 5835 5833 5832 5831 5829 5828 5827 5825 5824 5823 5821 5820 5818 5818 5817 5816 5815 5814 5813 5812 5812 5811 5811 5811 5811 5810 5809 5808 5807 5806 5805 5804 5804 5803
5834 5832 5830 5829 5827 5826 5824 5823 5822 5820 5818 5817 5816 5815 5814 5812 5811 5810 5809 5808 5807 5806 5805 5804 5804 5804 5803 5803 5803 5802 5801 5800 5799 5798 5797 5797 5797 5796
5826 5824 5823 5821 5820 5818 5816 5815 5814 5812 5810 5809 5808 5807 5805 5804 5803 5802 5801 5800 5799 5799 5797 5796 5796 5796 5795 5795 5794 5794 5793 5792 5791 5790 5790 5789 5789 5789
5817 5816 5815 5813 5812 5810 5808 5807 5805 5804 5802 5801 5799 5798 5797 5796 5795 5794 5792 5791 5791 5790 5789 5788 5788 5787 5787 5787 5786 5786 5785 5784 5783 5782 5782 5781 5781 5781
5809 5808 5807 5805 5804 5802 5800 5799 5797 5795 5794 5792 5790 5789 5788 5787 5786 5785 5784 5783 5782 5781 5780 5780 5779 5778 5778 5778 5777 5777 5776 5776 5774 5774 5773 5773 5773 5773
5801 5800 5799 5797 5796 5794 5792 5790 5789 5787 5785 5783 5782 5780 5779 5778 5777 5776 5775 5774 5773 5772 5771 5770 5770 5769 5768 5768 5768 5768 5767 5767 5766 5765 5765 5764 5764 5764
5792 5791 5790 5789 5788 5786 5784 5782 5781 5779 5777 5775 5773 5772 5771 5769 5768 5767 5766 5765 5763 5763 5761 5761 5760 5759 5759 5758 5758 5758 5758 5757 5757 5756 5756 5756 5756 5756
5783 5782 5781 5780 5779 5777 5776 5774 5773 5771 5769 5767 5765 5764 5762 5761 5759 5758 5757 5755 5754 5753 5752 5751 5750 5749 5749 5749 5748 5748 5748 5748 5747 5747 5747 5747 5747 5747
5774 5773 5772 5771 5770 5768 5767 5766 5764 5762 5760 5758 5757 5755 5753 5752 5750 5749 5748 5746 5745 5744 5742 5741 5740 5740 5739 5739 5738 5738 5738 5738 5738 5738 5737 5737 5738 5738
5765 5764 5763 5762 5761 5759 5758 5756 5755 5753 5751 5749 5748 5746 5745 5743 5741 5739 5738 5737 5735 5734 5733 5732 5731 5731 5730 5729 5729 5729 5729 5728 5728 5728 5728 5729 5729 5729
5755 5754 5752 5751 5751 5750 5748 5747 5745 5744 5742 5740 5739 5737 5735 5733 5732 5730 5729 5728 5726 5725 5724 5723 5722 5722 5721 5721 5720 5720 5720 5720 5719 5719 5720 5720 5720 5720
5745 5744 5743 5742 5741 5740 5739 5737 5736 5734 5733 5731 5729 5728 5726 5724 5723 5721 5720 5718 5717 5716 5715 5714 5714 5713 5712 5712 5712 5712 5712 5711 5711 5711 5711 5712 5712 5712
5736 5735 5734 5732 5731 5730 5729 5728 5726 5725 5723 5721 5720 5718 5717 5715 5714 5712 5711 5710 5709 5708 5707 5706 5705 5705 5704 5704 5704 5704 5704 5703 5703 5703 5703 5704 5704 5704
5727 5726 5724 5723 5722 5720 5719 5718 5716 5715 5713 5712 5710 5709 5708 5707 5705 5704 5703 5702 5701 5700 5699 5698 5697 5696 5696 5696 5696 5696 5696 5696 5696 5696 5696 5696 5697 5697
5718 5717 5715 5714 5712 5711 5709 5708 5707 5705 5704 5703 5701 5700 5699 5698 5697 5696 5695 5694 5693 5692 5690 5690 5689 5688 5688 5688 5688 5688 5688 5688 5689 5689 5689 5689 5689 5690
5709 5708 5706 5704 5702 5701 5699 5698 5697 5696 5695 5694 5693 5692 5691 5690 5689 5688 5687 5686 5685 5684 5683 5682 5681 5681 5680 5680 5680 5680 5681 5681 5681 5682 5682 5682 5683 5683
5700 5698 5697 5695 5693 5691 5690 5689 5688 5687 5686 5686 5685 5684 5683 5681 5680 5680 5679 5678 5677 5676 5675 5674 5673 5672 5672 5673 5673 5673 5673 5674 5674 5674 5675 5676 5676 5676
5691 5689 5688 5686 5685 5683 5682 5680 5679 5678 5678 5677 5676 5675 5674 5673 5672 5671 5671 5670 5669 5667 5667 5666 5665 5665 5665 5665 5666 5666 5666 5666 5667 5667 5668 5668 5669 5669